TimeEST,TemperatureF,Dew PointF,Humidity,Sea Level PressureIn,VisibilityMPH,Wind Direction,Wind SpeedMPH,Gust SpeedMPH,PrecipitationIn,Events,Conditions,WindDirDegrees,DateUTC
12:53 AM,70.0,66.9,90,30.17,10.0,ENE,4.6,-,N/A,,Overcast,60,2013-01-09 05:53:00
1:53 AM,70.0,66.9,90,30.18,10.0,ENE,5.8,-,N/A,,Mostly Cloudy,60,2013-01-09 06:53:00
2:53 AM,69.1,66.9,93,30.17,8.0,ENE,5.8,-,N/A,,Clear,70,2013-01-09 07:53:00
3:53 AM,69.1,66.9,93,30.17,7.0,ENE,6.9,-,N/A,,Clear,60,2013-01-09 08:53:00
4:53 AM,69.1,66.9,93,30.16,7.0,NE,8.1,-,N/A,,Clear,50,2013-01-09 09:53:00
5:21 AM,69.1,66.9,93,30.17,6.0,ENE,5.8,-,N/A,,Scattered Clouds,70,2013-01-09 10:21:00
5:29 AM,69.1,66.9,93,30.17,6.0,ENE,5.8,-,N/A,,Mostly Cloudy,70,2013-01-09 10:29:00
5:53 AM,68.0,66.9,96,30.18,5.0,East,5.8,-,N/A,,Mostly Cloudy,80,2013-01-09 10:53:00
6:14 AM,68.0,66.9,96,30.18,5.0,East,3.5,-,N/A,,Overcast,80,2013-01-09 11:14:00
6:33 AM,69.1,66.9,93,30.19,5.0,Calm,Calm,-,N/A,,Overcast,0,2013-01-09 11:33:00
6:53 AM,69.1,66.9,93,30.19,5.0,Calm,Calm,-,N/A,,Mostly Cloudy,0,2013-01-09 11:53:00
7:02 AM,69.1,66.9,93,30.20,5.0,Calm,Calm,-,N/A,,Scattered Clouds,0,2013-01-09 12:02:00
7:53 AM,69.1,66.9,93,30.21,5.0,East,3.5,-,N/A,,Clear,80,2013-01-09 12:53:00
8:40 AM,71.1,68.0,90,30.24,6.0,NE,4.6,-,N/A,,Mostly Cloudy,50,2013-01-09 13:40:00
8:49 AM,71.6,68.0,88,30.24,6.0,NNE,5.8,-,N/A,,Mostly Cloudy,30,2013-01-09 13:49:00
8:53 AM,71.1,68.0,90,30.24,6.0,NE,5.8,-,N/A,,Mostly Cloudy,40,2013-01-09 13:53:00
9:14 AM,71.1,68.0,90,30.25,6.0,NE,6.9,-,N/A,,Overcast,50,2013-01-09 14:14:00
9:36 AM,71.1,68.0,90,30.26,7.0,NE,5.8,-,N/A,,Scattered Clouds,50,2013-01-09 14:36:00
9:46 AM,71.1,68.0,90,30.26,7.0,ENE,5.8,-,N/A,,Mostly Cloudy,60,2013-01-09 14:46:00
9:53 AM,72.0,68.0,87,30.26,7.0,ENE,5.8,-,N/A,,Mostly Cloudy,60,2013-01-09 14:53:00
10:06 AM,72.0,68.0,87,30.27,7.0,East,5.8,-,N/A,,Scattered Clouds,90,2013-01-09 15:06:00
10:49 AM,71.6,68.0,88,30.27,9.0,East,6.9,-,N/A,,Mostly Cloudy,90,2013-01-09 15:49:00
10:53 AM,73.0,68.0,84,30.27,9.0,East,8.1,-,N/A,,Mostly Cloudy,90,2013-01-09 15:53:00
11:34 AM,73.9,68.0,82,30.26,10.0,East,4.6,-,N/A,,Mostly Cloudy,90,2013-01-09 16:34:00
11:53 AM,75.0,68.0,79,30.25,10.0,ENE,4.6,-,N/A,,Scattered Clouds,70,2013-01-09 16:53:00
12:53 PM,78.1,68.0,71,30.22,10.0,SE,8.1,-,N/A,,Clear,130,2013-01-09 17:53:00
1:53 PM,78.1,66.9,68,30.20,10.0,ESE,5.8,-,N/A,,Clear,110,2013-01-09 18:53:00
2:53 PM,78.1,66.9,68,30.19,10.0,ENE,3.5,-,N/A,,Clear,60,2013-01-09 19:53:00
3:53 PM,79.0,66.9,66,30.19,10.0,ENE,4.6,-,N/A,,Clear,70,2013-01-09 20:53:00
4:53 PM,75.9,66.9,74,30.19,10.0,SE,3.5,-,N/A,,Partly Cloudy,130,2013-01-09 21:53:00
5:53 PM,75.0,66.0,73,30.19,10.0,SE,4.6,-,N/A,,Partly Cloudy,130,2013-01-09 22:53:00
6:53 PM,73.9,66.0,76,30.22,10.0,ENE,8.1,-,N/A,,Clear,60,2013-01-09 23:53:00
7:53 PM,72.0,66.0,81,30.23,10.0,ESE,6.9,-,N/A,,Clear,110,2013-01-10 00:53:00
8:53 PM,72.0,64.9,78,30.24,10.0,ESE,9.2,-,N/A,,Clear,120,2013-01-10 01:53:00
9:53 PM,72.0,66.9,84,30.26,10.0,SE,10.4,-,N/A,,Clear,130,2013-01-10 02:53:00
10:53 PM,71.1,66.9,87,30.27,10.0,East,6.9,-,N/A,,Clear,90,2013-01-10 03:53:00
11:53 PM,70.0,66.9,90,30.28,8.0,East,6.9,-,N/A,,Clear,90,2013-01-10 04:53:00